Regional Weather Roundup
Issued by NWS Upton, NY

Current Version | Previous Version | Text Only | Print | Product List | Glossary On
Versions: 1 2 3 4 5 6 7 8 9 10 11 12 13 14 15 16 17 18 19 20 21 22 23 24 25 26 27 28 29 30 31 32 33 34 35 36 37 38 39 40 41 42 43 44 45 46 47 48 49 50
000
ASUS41 KOKX 230205
RWROKX

REGIONAL WEATHER ROUNDUP
NATIONAL WEATHER SERVICE NEW YORK NY
1000 PM EDT FRI AUG 22 2014

NOTE: "FAIR" INDICATES FEW OR NO CLOUDS BELOW 12,000 FEET WITH NO
SIGNIFICANT WEATHER AND/OR OBSTRUCTIONS TO VISIBILITY.

NYZ071-072-176-178-NJZ106-104-230300-
NEW YORK CITY METRO AREA


CITY           SKY/WX    TMP DP  RH WIND       PRES   REMARKS
CENTRAL PARK   CLOUDY    71  58  63 E7        30.08R
LAGUARDIA APRT CLOUDY    71  60  68 E8        30.05R
KENNEDY INTL   MOCLDY    70  59  68 NE5       30.06R
NEWARK/LIBERTY CLOUDY    72  60  66 E5        30.05S
BRNX BOT. GARD   N/A    N/A N/A N/A S6        30.08R
TETERBORO      CLOUDY    72  58  61 E8        30.05R
$$

NYZ177-179-078>081-230300-
LONG ISLAND NEW YORK

CITY           SKY/WX    TMP DP  RH WIND       PRES   REMARKS
FARMINGDALE    CLOUDY    69  60  73 NE6       30.05R
ISLIP          MOCLDY    68  59  73 E7        30.04R
SHIRLEY        CLEAR     65  59  81 CALM      30.06S
WESTHAMPTON    CLEAR     65  59  81 NE5       30.07S
MONTAUK POINT    N/A     68  62  81 E7        30.07F
$$

NYZ052-065-067-230300-
HUDSON VALLEY

CITY           SKY/WX    TMP DP  RH WIND       PRES   REMARKS
WHITE PLAINS   MOCLDY    68  62  81 CALM      30.06R
NEWBURGH       NOT AVBL
MONTGOMERY     CLOUDY    66  63  90 CALM      30.07S
POUGHKEEPSIE   CLOUDY    68  62  81 N5        30.06S
ALBANY         CLOUDY    64  61  90 NW5       30.09S
$$

NJZ001-105-106-008-010-013-015-019>022-104-230300-
NEW JERSEY

CITY           SKY/WX    TMP DP  RH WIND       PRES   REMARKS
NEWARK/LIBERTY CLOUDY    72  60  66 E5        30.05S
TETERBORO      CLOUDY    72  58  61 E8        30.05R
CALDWELL       CLOUDY    68  60  75 CALM      30.07R
MORRISTOWN     CLOUDY    66  64  94 CALM      30.07R
SOMERVILLE     CLOUDY    69  61  75 N3        30.04S
LINDEN         CLOUDY    76  64  66 CALM      30.07R
SUSSEX         CLOUDY    68  63  84 NE3       30.07R
ANDOVER          N/A     67  62  84 CALM      30.07S
TRENTON        CLOUDY    69  59  70 E10       30.03S
MILLVILLE      CLEAR     68  62  81 NE9       30.02S
ATLANTIC CITY  CLEAR     64  61  90 N6        30.02S
WRIGHTSTOWN    PTCLDY    66  62  87 NE3       30.02S
TOMS RIVER     MOCLDY    64  63  94 CALM      30.04S
BELMAR         CLOUDY    70  61  73 NE6       30.05R
$$

PAZ047>061-062-071-230300-
EASTERN PENNSYLVANIA

CITY           SKY/WX    TMP DP  RH WIND       PRES   REMARKS
PHILADELPHIA   MOCLDY    71  62  73 E10       30.04R
ALLENTOWN      CLOUDY    70  57  63 E10       30.04S
SCRANTON       CLOUDY    69  62  78 SE8       30.03S
$$

CTZ002-004>006-009-010-012-RIZ004-006-007-MAZ004-011-015-230300-
SOUTHERN NEW ENGLAND
 IN CT

CITY           SKY/WX    TMP DP  RH WIND       PRES   REMARKS
BRADLEY INTL   CLOUDY    66  63  90 N6        30.08S
HARTFORD       CLOUDY    66  63  90 N7        30.07F
DANBURY        CLOUDY    68  61  78 E6        30.08F
WTRBRY/OXFORD  CLOUDY    64  59  82 NE6       30.10R
BRIDGEPORT     CLOUDY    70  61  73 E12       30.06S
MERIDEN        CLOUDY    68  62  81 NE3       30.07S
NEW HAVEN      CLOUDY    69  62  78 NE3       30.07S
CHESTER        CLOUDY    66  64  94 CALM      30.08S
GROTON         CLEAR     65  61  87 NE5       30.06S
WILLIMANTIC    PTCLDY    66  62  87 NE5       30.09S

 IN RI

CITY           SKY/WX    TMP DP  RH WIND       PRES   REMARKS
PROVIDENCE     CLOUDY    67  60  78 NE9       30.09S
BLOCK ISLAND   PTCLDY    66  61  82 E12       30.07F
WESTERLY       CLOUDY    67  61  81 NE6       30.07F

 IN MA

CITY           SKY/WX    TMP DP  RH WIND       PRES   REMARKS
BOSTON         CLOUDY    66  62  87 NE13      30.10F
WORCESTER      CLOUDY    62  60  93 NE3       30.12S
WESTFIELD      CLOUDY    65  62  90 N7        30.09S
PROVINCETOWN   MOCLDY    64  61  88 MISG      30.10S
NANTUCKET      MOCLDY    65  62  90 NE10      30.06F
$$

ANZ330-335-338-340-345-350-353-355-230300-
COASTAL MARINE OBSERVATIONS


STATION/POSITION TIME  SKY/WX   TEMP    WIND        PRES    VSBY  WAVE
                                AIR SEA DIR/SP/G                  HT/PER
                 (UTC)          (F)     (DEG/KT/KT) (MB)    (MI)  (FT/S)
NY HARB ENTRANCE NOT AVBL
4S FIRE IS       NOT AVBL
23SW MTP         0200            68 70              1016.7          4/ 7
HUDSON CANYON    0200            70 72   40/ 17/ 19 1015.6          4/ 7
EXECUTION ROCKS  0200            71 73   80/ 12/ 16   N/A
WESTERN LI SOUND 0200            72      80/ 16/ 17   N/A           2/ 4
CENTRAL LI SOUND 0100            69 72  100/ 14/ 16   N/A           2/ 3
EASTERN LI SOUND 0100            69 68   80/ 10/ 12   N/A
ROBBINS REEF     0200            71      70/  6/  7   N/A
$$


>>>>>>>>>>>>>>>>>>>>>>>>>>>> KEY <<<<<<<<<<<<<<<<<<<<<<<<<<<
>                                                          <
>     SKY/WX - SKY CONDITION/PRESENT WEATHER               <
>     TMP    - TEMPERATURE IN FAHRENHEIT                   <
>     DP     - DEWPOINT IN FAHRENHEIT                      <
>     RH     - RELATIVE HUMIDITY IN PERCENT                <
>     WIND   - DIRECTION AND SPEED IN MPH                  <
>     PRES   - MEAN SEA LEVEL PRESSURE IN INCHES OF HG     <
>     WCI    - WIND CHILL INDEX                            <
>     VSB    - VISIBILITY IN MILES                         <
>     HX     - HEAT INDEX                                  <
>     TC     - TEMPERATURE IN CELSIUS                      <
>     VRB    - VARIABLE WIND DIRECTION                     <
>                                                          <
>>>>>>>>>>>>>>>>>>>>>>>>>>>> KEY <<<<<<<<<<<<<<<<<<<<<<<<<<<





USA.gov is the U.S. government's official web portal to all federal, state and local government web resources and services.